Time,TemperatureF,DewpointF,PressureIn,WindDirection,WindDirectionDegrees,WindSpeedMPH,WindSpeedGustMPH,Humidity,HourlyPrecipIn,Conditions,Clouds,dailyrainin,SolarRadiationWatts/m^2,SoftwareType,DateUTC
2013-04-11 00:00:00,48.6,46.1,29.84,NNE,20,0.0,0.0,91,0.01,,,0.17,0.0,WeatherDisplay:10.37,2013-04-11 04:00:00,
2013-04-11 00:01:00,48.6,46.1,29.84,NNE,20,0.0,0.0,91,0.01,RA,,0.00,0.0,WeatherDisplay:10.37,2013-04-11 04:01:00,
2013-04-11 00:06:00,48.6,46.1,29.84,NNE,20,0.0,0.0,91,0.01,RA,,0.00,0.0,WeatherDisplay:10.37,2013-04-11 04:06:00,
2013-04-11 00:11:00,48.6,46.1,29.84,NNE,20,0.0,0.0,91,0.01,CLR,,0.00,0.0,WeatherDisplay:10.37,2013-04-11 04:11:00,
2013-04-11 00:16:00,48.5,46.0,29.83,NNE,20,0.0,0.0,91,0.01,CLR,,0.00,0.0,WeatherDisplay:10.37,2013-04-11 04:16:00,
2013-04-11 00:21:00,48.5,46.0,29.83,NNE,20,0.0,0.0,91,0.01,CLR,,0.00,0.0,WeatherDisplay:10.37,2013-04-11 04:21:00,
2013-04-11 00:26:00,48.4,45.9,29.83,NNE,20,0.0,0.0,91,0.01,CLR,,0.00,0.0,WeatherDisplay:10.37,2013-04-11 04:26:00,
2013-04-11 00:31:00,48.3,45.8,29.83,NNE,20,0.0,1.0,91,0.01,CLR,,0.00,0.0,WeatherDisplay:10.37,2013-04-11 04:31:00,
2013-04-11 00:36:00,48.2,45.7,29.83,NNE,20,0.0,0.0,91,0.01,CLR,,0.00,0.0,WeatherDisplay:10.37,2013-04-11 04:36:00,
2013-04-11 00:41:00,48.2,46.0,29.83,NNE,20,0.0,0.0,92,0.01,CLR,,0.00,0.0,WeatherDisplay:10.37,2013-04-11 04:41:00,
2013-04-11 00:46:00,48.1,45.9,29.83,NNE,20,0.0,0.0,92,0.01,CLR,,0.00,0.0,WeatherDisplay:10.37,2013-04-11 04:46:00,
2013-04-11 00:51:00,48.1,45.9,29.83,NNE,20,0.0,0.0,92,0.00,CLR,,0.00,0.0,WeatherDisplay:10.37,2013-04-11 04:51:00,
2013-04-11 00:56:00,48.1,45.9,29.83,NNE,20,0.0,0.0,92,0.00,CLR,,0.00,0.0,WeatherDisplay:10.37,2013-04-11 04:56:00,
2013-04-11 01:01:00,48.1,45.9,29.84,NNE,20,0.0,0.0,92,0.00,CLR,,0.00,0.0,WeatherDisplay:10.37,2013-04-11 05:01:00,
2013-04-11 01:06:00,48.0,45.8,29.84,NNE,20,0.0,0.0,92,0.00,CLR,,0.00,0.0,WeatherDisplay:10.37,2013-04-11 05:06:00,
2013-04-11 01:11:00,47.9,45.7,29.84,NNE,20,0.0,0.0,92,0.00,CLR,,0.00,0.0,WeatherDisplay:10.37,2013-04-11 05:11:00,
2013-04-11 01:16:00,47.9,45.7,29.84,NNE,20,0.0,0.0,92,0.00,CLR,,0.00,0.0,WeatherDisplay:10.37,2013-04-11 05:16:00,
2013-04-11 01:21:00,47.8,45.6,29.84,NNE,20,0.0,0.0,92,0.00,CLR,,0.00,0.0,WeatherDisplay:10.37,2013-04-11 05:21:00,
2013-04-11 01:26:00,47.8,45.6,29.84,NNE,20,0.0,0.0,92,0.00,CLR,,0.00,0.0,WeatherDisplay:10.37,2013-04-11 05:26:00,
2013-04-11 01:31:00,47.8,45.6,29.83,NNE,20,0.0,0.0,92,0.00,CLR,,0.00,0.0,WeatherDisplay:10.37,2013-04-11 05:31:00,
2013-04-11 01:36:00,47.7,45.5,29.83,NNE,20,0.0,0.0,92,0.00,CLR,,0.00,0.0,WeatherDisplay:10.37,2013-04-11 05:36:00,
2013-04-11 01:41:00,47.7,45.5,29.83,NNE,20,0.0,0.0,92,0.00,CLR,,0.00,0.0,WeatherDisplay:10.37,2013-04-11 05:41:00,
2013-04-11 01:46:00,47.7,45.5,29.83,NNE,20,0.0,0.0,92,0.00,CLR,,0.00,0.0,WeatherDisplay:10.37,2013-04-11 05:46:00,
2013-04-11 01:51:00,47.7,45.5,29.83,NNE,20,0.0,0.0,92,0.00,CLR,,0.00,0.0,WeatherDisplay:10.37,2013-04-11 05:51:00,
2013-04-11 01:56:00,47.7,45.5,29.83,NNE,20,0.0,0.0,92,0.00,CLR,,0.00,0.0,WeatherDisplay:10.37,2013-04-11 05:56:00,
2013-04-11 02:01:00,47.7,45.5,29.81,NNE,20,0.0,0.0,92,0.00,CLR,,0.00,0.0,WeatherDisplay:10.37,2013-04-11 06:01:00,
2013-04-11 02:06:00,47.8,45.6,29.81,NNE,20,0.0,0.0,92,0.00,CLR,,0.00,0.0,WeatherDisplay:10.37,2013-04-11 06:06:00,
2013-04-11 02:11:00,47.8,45.6,29.81,NNE,20,0.0,0.0,92,0.00,CLR,,0.00,0.0,WeatherDisplay:10.37,2013-04-11 06:11:00,
2013-04-11 02:16:00,47.9,45.7,29.80,NNE,20,0.0,0.0,92,0.00,CLR,,0.00,0.0,WeatherDisplay:10.37,2013-04-11 06:16:00,
2013-04-11 02:21:00,47.8,45.6,29.80,NNE,20,0.0,0.0,92,0.00,CLR,,0.00,0.0,WeatherDisplay:10.37,2013-04-11 06:21:00,
2013-04-11 02:26:00,47.9,45.7,29.80,NNE,20,0.0,0.0,92,0.00,CLR,,0.00,0.0,WeatherDisplay:10.37,2013-04-11 06:26:00,
2013-04-11 02:31:00,47.8,45.6,29.79,NNE,20,0.0,0.0,92,0.00,CLR,,0.00,0.0,WeatherDisplay:10.37,2013-04-11 06:31:00,
2013-04-11 02:36:00,47.8,45.6,29.79,NNE,20,0.0,0.0,92,0.00,CLR,,0.00,0.0,WeatherDisplay:10.37,2013-04-11 06:36:00,
2013-04-11 02:41:00,47.8,45.6,29.79,NNE,20,0.0,0.0,92,0.00,CLR,,0.00,0.0,WeatherDisplay:10.37,2013-04-11 06:41:00,
2013-04-11 02:47:00,47.9,45.7,29.79,NNE,20,0.0,0.0,92,0.00,CLR,,0.00,0.0,WeatherDisplay:10.37,2013-04-11 06:47:00,
2013-04-11 02:52:00,47.9,45.7,29.79,NNE,20,0.0,0.0,92,0.00,CLR,,0.00,0.0,WeatherDisplay:10.37,2013-04-11 06:52:00,
2013-04-11 02:57:00,47.9,45.7,29.79,NNE,20,0.0,0.0,92,0.00,CLR,,0.00,0.0,WeatherDisplay:10.37,2013-04-11 06:57:00,
2013-04-11 03:02:00,48.0,45.8,29.80,NNE,20,0.0,0.0,92,0.00,CLR,,0.00,0.0,WeatherDisplay:10.37,2013-04-11 07:02:00,
2013-04-11 03:07:00,48.0,45.8,29.80,NNE,20,0.0,0.0,92,0.00,CLR,,0.00,0.0,WeatherDisplay:10.37,2013-04-11 07:07:00,
2013-04-11 03:12:00,48.0,45.8,29.80,NNE,20,0.0,0.0,92,0.00,CLR,,0.00,0.0,WeatherDisplay:10.37,2013-04-11 07:12:00,
2013-04-11 03:17:00,48.1,45.9,29.80,NNE,20,0.0,0.0,92,0.00,CLR,,0.00,0.0,WeatherDisplay:10.37,2013-04-11 07:17:00,
2013-04-11 03:22:00,48.1,45.9,29.80,NNE,20,0.0,0.0,92,0.00,CLR,,0.00,0.0,WeatherDisplay:10.37,2013-04-11 07:22:00,
2013-04-11 03:27:00,48.1,45.9,29.80,NNE,20,1.2,3.5,92,0.00,CLR,,0.00,0.0,WeatherDisplay:10.37,2013-04-11 07:27:00,
2013-04-11 03:32:00,48.2,46.0,29.80,NNE,20,0.0,0.0,92,0.00,CLR,,0.00,0.0,WeatherDisplay:10.37,2013-04-11 07:32:00,
2013-04-11 03:37:00,48.2,46.0,29.80,NNE,20,0.0,0.0,92,0.00,CLR,,0.00,0.0,WeatherDisplay:10.37,2013-04-11 07:37:00,
2013-04-11 03:42:00,48.2,46.0,29.80,NNE,20,2.8,3.5,92,0.00,CLR,,0.00,0.0,WeatherDisplay:10.37,2013-04-11 07:42:00,
2013-04-11 03:47:00,48.1,45.9,29.80,NNE,20,0.0,0.0,92,0.00,CLR,,0.00,0.0,WeatherDisplay:10.37,2013-04-11 07:47:00,
2013-04-11 03:52:00,48.1,45.9,29.80,NNE,20,0.6,3.5,92,0.00,CLR,,0.00,0.0,WeatherDisplay:10.37,2013-04-11 07:52:00,
2013-04-11 03:57:00,48.1,45.9,29.80,NNE,20,0.0,0.0,92,0.00,CLR,,0.00,0.0,WeatherDisplay:10.37,2013-04-11 07:57:00,
2013-04-11 04:02:00,48.1,45.9,29.80,NNE,20,0.2,2.3,92,0.00,CLR,,0.00,0.0,WeatherDisplay:10.37,2013-04-11 08:02:00,
2013-04-11 04:07:00,48.1,45.9,29.80,NNE,20,0.0,0.0,92,0.00,CLR,,0.00,0.0,WeatherDisplay:10.37,2013-04-11 08:07:00,
2013-04-11 04:12:00,48.1,45.9,29.80,NNE,20,2.2,5.0,92,0.00,CLR,,0.00,0.0,WeatherDisplay:10.37,2013-04-11 08:12:00,
2013-04-11 04:17:00,48.1,45.9,29.81,NNE,20,3.0,4.6,92,0.00,CLR,,0.00,0.0,WeatherDisplay:10.37,2013-04-11 08:17:00,
2013-04-11 04:22:00,48.2,46.0,29.81,NNE,20,0.0,0.0,92,0.00,CLR,,0.00,0.0,WeatherDisplay:10.37,2013-04-11 08:22:00,
2013-04-11 04:27:00,48.2,46.0,29.81,NNE,20,0.1,3.5,92,0.00,CLR,,0.00,0.0,WeatherDisplay:10.37,2013-04-11 08:27:00,
2013-04-11 04:32:00,48.3,46.1,29.81,NNE,20,3.4,5.8,92,0.00,CLR,,0.00,0.0,WeatherDisplay:10.37,2013-04-11 08:32:00,
2013-04-11 04:37:00,48.4,46.2,29.81,NNE,20,3.2,5.8,92,0.00,CLR,,0.00,0.0,WeatherDisplay:10.37,2013-04-11 08:37:00,
2013-04-11 04:42:00,48.4,46.2,29.81,NNE,20,2.8,4.6,92,0.00,CLR,,0.00,0.0,WeatherDisplay:10.37,2013-04-11 08:42:00,
2013-04-11 04:47:00,48.4,46.2,29.80,NNE,20,0.0,2.3,92,0.00,CLR,,0.00,0.0,WeatherDisplay:10.37,2013-04-11 08:47:00,
2013-04-11 04:52:00,48.4,46.2,29.80,NNE,20,0.0,0.0,92,0.00,CLR,,0.00,0.0,WeatherDisplay:10.37,2013-04-11 08:52:00,
2013-04-11 04:57:00,48.4,46.2,29.80,NNE,20,4.0,4.6,92,0.00,CLR,,0.00,0.0,WeatherDisplay:10.37,2013-04-11 08:57:00,
2013-04-11 05:02:00,48.5,46.0,29.81,NNE,20,5.4,8.0,91,0.00,CLR,,0.00,0.0,WeatherDisplay:10.37,2013-04-11 09:02:00,
2013-04-11 05:07:00,48.5,46.0,29.81,NNE,15,4.0,5.8,91,0.00,CLR,,0.00,0.0,WeatherDisplay:10.37,2013-04-11 09:07:00,
2013-04-11 05:12:00,48.5,46.0,29.81,NNE,20,5.3,8.1,91,0.00,CLR,,0.00,0.0,WeatherDisplay:10.37,2013-04-11 09:12:00,
2013-04-11 05:17:00,48.5,46.0,29.81,NNE,20,3.1,6.9,91,0.00,CLR,,0.00,0.0,WeatherDisplay:10.37,2013-04-11 09:17:00,
2013-04-11 05:22:00,48.5,46.0,29.81,NNE,20,0.9,5.8,91,0.00,CLR,,0.00,0.0,WeatherDisplay:10.37,2013-04-11 09:22:00,
2013-04-11 05:27:00,48.5,46.0,29.81,NNE,20,0.0,3.5,91,0.00,CLR,,0.00,0.0,WeatherDisplay:10.37,2013-04-11 09:27:00,
2013-04-11 05:32:00,48.5,46.0,29.83,NNE,20,3.8,5.8,91,0.00,CLR,,0.00,0.0,WeatherDisplay:10.37,2013-04-11 09:32:00,
2013-04-11 05:37:00,48.5,46.0,29.83,NNE,20,6.1,9.0,91,0.00,CLR,,0.00,0.0,WeatherDisplay:10.37,2013-04-11 09:37:00,
2013-04-11 05:42:00,48.5,46.0,29.83,NNE,20,5.8,8.1,91,0.00,CLR,,0.00,0.0,WeatherDisplay:10.37,2013-04-11 09:42:00,
2013-04-11 05:47:00,48.4,45.9,29.83,NNE,20,4.6,6.9,91,0.00,CLR,,0.00,0.0,WeatherDisplay:10.37,2013-04-11 09:47:00,
2013-04-11 05:52:00,48.4,45.9,29.83,NNE,20,7.6,11.5,91,0.00,CLR,,0.00,0.0,WeatherDisplay:10.37,2013-04-11 09:52:00,
2013-04-11 05:57:00,48.3,45.8,29.83,NNE,20,5.0,9.2,91,0.00,CLR,,0.00,0.0,WeatherDisplay:10.37,2013-04-11 09:57:00,
2013-04-11 06:02:00,48.3,45.8,29.84,NNE,20,6.0,11.5,91,0.00,OVC,,0.00,0.0,WeatherDisplay:10.37,2013-04-11 10:02:00,
2013-04-11 06:07:00,48.2,45.7,29.84,NNE,20,3.9,8.0,91,0.00,OVC,,0.00,0.0,WeatherDisplay:10.37,2013-04-11 10:07:00,
2013-04-11 06:12:00,48.1,45.6,29.84,NNE,20,8.0,12.7,91,0.00,OVC,,0.00,0.0,WeatherDisplay:10.37,2013-04-11 10:12:00,
2013-04-11 06:17:00,48.1,45.6,29.86,NNE,20,5.9,15.0,91,0.00,OVC,,0.00,0.0,WeatherDisplay:10.37,2013-04-11 10:17:00,
2013-04-11 06:23:00,47.9,45.4,29.86,NNE,20,5.2,6.9,91,0.00,OVC,,0.00,0.0,WeatherDisplay:10.37,2013-04-11 10:23:00,
2013-04-11 06:28:00,47.9,45.4,29.86,NNE,20,5.5,10.4,91,0.00,OVC,,0.00,5.0,WeatherDisplay:10.37,2013-04-11 10:28:00,
2013-04-11 06:33:00,47.9,45.4,29.86,NNE,20,3.8,10.4,91,0.00,OVC,,0.00,7.0,WeatherDisplay:10.37,2013-04-11 10:33:00,
2013-04-11 06:38:00,47.8,45.3,29.86,NNE,20,4.8,13.8,91,0.00,OVC,,0.00,9.0,WeatherDisplay:10.37,2013-04-11 10:38:00,
2013-04-11 06:43:00,47.7,45.2,29.86,NNE,20,5.4,10.0,91,0.00,OVC,,0.00,12.0,WeatherDisplay:10.37,2013-04-11 10:43:00,
2013-04-11 06:48:00,47.7,45.2,29.89,NNE,20,2.4,5.8,91,0.00,OVC,,0.00,11.0,WeatherDisplay:10.37,2013-04-11 10:48:00,
2013-04-11 06:53:00,47.6,45.1,29.89,NNE,20,7.9,11.5,91,0.00,OVC,,0.00,14.0,WeatherDisplay:10.37,2013-04-11 10:53:00,
2013-04-11 06:58:00,47.6,45.1,29.89,NNE,20,4.2,7.0,91,0.00,OVC,,0.00,18.0,WeatherDisplay:10.37,2013-04-11 10:58:00,
2013-04-11 07:03:00,47.4,44.9,29.89,NNE,20,5.6,9.2,91,0.00,OVC,,0.00,26.0,WeatherDisplay:10.37,2013-04-11 11:03:00,
2013-04-11 07:08:00,47.4,44.9,29.89,NNE,20,2.2,8.1,91,0.00,OVC,,0.00,23.0,WeatherDisplay:10.37,2013-04-11 11:08:00,
2013-04-11 07:13:00,47.4,44.9,29.89,NNE,15,2.5,3.5,91,0.00,OVC,,0.00,14.0,WeatherDisplay:10.37,2013-04-11 11:13:00,
2013-04-11 07:18:00,47.4,44.9,29.90,NNE,20,3.5,10.4,91,0.00,OVC,,0.00,14.0,WeatherDisplay:10.37,2013-04-11 11:18:00,
2013-04-11 07:23:00,47.4,44.9,29.90,NNE,20,8.3,15.0,91,0.00,OVC,,0.00,18.0,WeatherDisplay:10.37,2013-04-11 11:23:00,
2013-04-11 07:28:00,47.2,44.7,29.90,NNE,15,9.3,13.8,91,0.00,OVC,,0.00,25.0,WeatherDisplay:10.37,2013-04-11 11:28:00,
2013-04-11 07:33:00,47.0,44.5,29.90,NNE,20,8.8,12.7,91,0.00,OVC,,0.00,30.0,WeatherDisplay:10.37,2013-04-11 11:33:00,
2013-04-11 07:38:00,47.0,44.5,29.90,NNE,20,5.0,8.1,91,0.00,OVC,,0.00,30.0,WeatherDisplay:10.37,2013-04-11 11:38:00,
2013-04-11 07:43:00,47.1,44.6,29.90,NNE,20,6.3,9.2,91,0.00,OVC,,0.00,37.0,WeatherDisplay:10.37,2013-04-11 11:43:00,
2013-04-11 07:48:00,47.1,44.6,29.91,NNE,20,2.2,6.9,91,0.00,OVC,,0.00,42.0,WeatherDisplay:10.37,2013-04-11 11:48:00,
2013-04-11 07:53:00,47.1,44.6,29.91,NNE,20,6.2,9.2,91,0.00,OVC,,0.00,42.0,WeatherDisplay:10.37,2013-04-11 11:53:00,
2013-04-11 07:58:00,47.0,44.8,29.91,NNE,20,6.2,9.2,92,0.00,OVC,,0.00,49.0,WeatherDisplay:10.37,2013-04-11 11:58:00,
2013-04-11 08:03:00,47.1,44.9,29.91,NNE,20,4.7,8.1,92,0.00,OVC,,0.00,60.0,WeatherDisplay:10.37,2013-04-11 12:03:00,
2013-04-11 08:08:00,47.1,44.9,29.91,NNE,15,3.5,9.2,92,0.00,OVC,,0.00,56.0,WeatherDisplay:10.37,2013-04-11 12:08:00,
2013-04-11 08:13:00,47.2,45.0,29.91,NNE,20,3.9,7.0,92,0.00,OVC,,0.00,46.0,WeatherDisplay:10.37,2013-04-11 12:13:00,
2013-04-11 08:18:00,47.2,45.0,29.90,NNE,15,3.4,4.6,92,0.00,OVC,,0.00,46.0,WeatherDisplay:10.37,2013-04-11 12:18:00,
2013-04-11 08:23:00,47.3,45.1,29.90,NNE,20,1.7,4.6,92,0.00,OVC,,0.00,53.0,WeatherDisplay:10.37,2013-04-11 12:23:00,
2013-04-11 08:28:00,47.3,45.1,29.90,NNE,20,4.7,6.9,92,0.00,OVC,,0.00,47.0,WeatherDisplay:10.37,2013-04-11 12:28:00,
2013-04-11 08:33:00,47.3,45.1,29.89,NNE,20,2.5,10.4,92,0.00,OVC,,0.00,54.0,WeatherDisplay:10.37,2013-04-11 12:33:00,
2013-04-11 08:38:00,47.3,45.1,29.89,NNE,20,3.8,8.1,92,0.00,OVC,,0.00,49.0,WeatherDisplay:10.37,2013-04-11 12:38:00,
2013-04-11 08:43:00,47.3,45.1,29.89,NNE,20,4.4,10.4,92,0.00,OVC,,0.00,54.0,WeatherDisplay:10.37,2013-04-11 12:43:00,
2013-04-11 08:48:00,47.3,45.1,29.92,NNE,20,4.0,5.8,92,0.00,OVC,,0.00,42.0,WeatherDisplay:10.37,2013-04-11 12:48:00,
2013-04-11 08:53:00,47.3,45.1,29.92,NNE,20,2.1,5.8,92,0.00,OVC,,0.00,51.0,WeatherDisplay:10.37,2013-04-11 12:53:00,
2013-04-11 08:58:00,47.4,45.2,29.92,NNE,20,0.0,2.3,92,0.00,OVC,,0.00,35.0,WeatherDisplay:10.37,2013-04-11 12:58:00,
2013-04-11 09:03:00,47.4,45.2,29.94,NNE,20,3.7,4.6,92,0.00,OVC,,0.00,37.0,WeatherDisplay:10.37,2013-04-11 13:03:00,
2013-04-11 09:08:00,47.4,45.2,29.94,NNE,20,3.6,6.9,92,0.00,OVC,,0.00,37.0,WeatherDisplay:10.37,2013-04-11 13:08:00,
2013-04-11 09:13:00,47.4,45.2,29.94,NNE,15,6.5,9.0,92,0.00,OVC,,0.00,30.0,WeatherDisplay:10.37,2013-04-11 13:13:00,
2013-04-11 09:18:00,47.3,45.1,29.95,NNE,20,0.3,4.6,92,0.00,OVC,,0.00,42.0,WeatherDisplay:10.37,2013-04-11 13:18:00,
2013-04-11 09:23:00,47.3,45.1,29.95,NNE,20,0.0,0.0,92,0.00,OVC,,0.00,32.0,WeatherDisplay:10.37,2013-04-11 13:23:00,
2013-04-11 09:28:00,47.3,45.1,29.95,NNE,20,0.1,3.5,92,0.00,OVC,,0.00,39.0,WeatherDisplay:10.37,2013-04-11 13:28:00,
2013-04-11 09:33:00,47.4,45.2,29.95,NNE,20,0.0,0.0,92,0.00,OVC,,0.00,35.0,WeatherDisplay:10.37,2013-04-11 13:33:00,
2013-04-11 09:38:00,47.3,45.1,29.95,NNE,20,1.5,5.0,92,0.00,OVC,,0.00,33.0,WeatherDisplay:10.37,2013-04-11 13:38:00,
2013-04-11 09:43:00,47.3,45.1,29.95,NNE,20,0.0,0.0,92,0.00,OVC,,0.00,56.0,WeatherDisplay:10.37,2013-04-11 13:43:00,
2013-04-11 09:48:00,47.3,45.1,29.94,NNE,20,0.1,1.2,92,0.00,OVC,,0.00,77.0,WeatherDisplay:10.37,2013-04-11 13:48:00,
2013-04-11 09:53:00,47.3,45.1,29.94,NNE,20,3.0,5.8,92,0.00,OVC,,0.00,74.0,WeatherDisplay:10.37,2013-04-11 13:53:00,
2013-04-11 09:58:00,47.3,45.1,29.94,NNE,20,2.2,5.0,92,0.00,OVC,,0.00,47.0,WeatherDisplay:10.37,2013-04-11 13:58:00,
2013-04-11 10:03:00,47.3,45.1,29.95,NNE,20,1.0,3.5,92,0.00,OVC,,0.00,95.0,WeatherDisplay:10.37,2013-04-11 14:03:00,
2013-04-11 10:08:00,47.3,45.1,29.95,NNE,20,1.3,3.5,92,0.00,OVC,,0.00,77.0,WeatherDisplay:10.37,2013-04-11 14:08:00,
2013-04-11 10:13:00,47.3,45.1,29.95,NNE,20,3.8,5.8,92,0.00,OVC,,0.00,84.0,WeatherDisplay:10.37,2013-04-11 14:13:00,
2013-04-11 10:18:00,47.3,45.1,29.95,NNE,20,1.6,7.0,92,0.00,OVC,,0.00,62.0,WeatherDisplay:10.37,2013-04-11 14:18:00,
2013-04-11 10:23:00,47.2,45.0,29.95,NNE,20,3.2,5.8,92,0.00,OVC,,0.00,95.0,WeatherDisplay:10.37,2013-04-11 14:23:00,
2013-04-11 10:28:00,47.1,44.9,29.95,NNE,20,0.9,4.6,92,0.00,OVC,,0.00,76.0,WeatherDisplay:10.37,2013-04-11 14:28:00,
2013-04-11 10:33:00,47.1,44.9,29.95,NNE,20,4.3,5.8,92,0.00,OVC,,0.00,65.0,WeatherDisplay:10.37,2013-04-11 14:33:00,
2013-04-11 10:38:00,47.1,44.9,29.95,NNE,20,1.6,6.0,92,0.00,OVC,,0.00,81.0,WeatherDisplay:10.37,2013-04-11 14:38:00,
2013-04-11 10:43:00,47.0,44.8,29.95,NNE,20,5.0,5.8,92,0.00,OVC,,0.00,111.0,WeatherDisplay:10.37,2013-04-11 14:43:00,
2013-04-11 10:48:00,47.0,44.8,29.95,NNE,20,2.0,4.6,92,0.00,OVC,,0.00,97.0,WeatherDisplay:10.37,2013-04-11 14:48:00,
2013-04-11 10:53:00,47.0,44.8,29.95,NNE,20,4.1,5.0,92,0.00,OVC,,0.00,97.0,WeatherDisplay:10.37,2013-04-11 14:53:00,
2013-04-11 10:58:00,47.0,44.8,29.95,NNE,20,1.0,3.5,92,0.00,OVC,,0.00,118.0,WeatherDisplay:10.37,2013-04-11 14:58:00,
2013-04-11 11:03:00,47.0,44.8,29.96,NNE,20,4.4,5.8,92,0.00,OVC,,0.00,100.0,WeatherDisplay:10.37,2013-04-11 15:03:00,
2013-04-11 11:08:00,46.9,44.7,29.96,NNE,20,2.9,4.6,92,0.00,OVC,,0.00,100.0,WeatherDisplay:10.37,2013-04-11 15:08:00,
2013-04-11 11:13:00,46.9,44.7,29.96,NNE,20,6.1,9.2,92,0.00,OVC,,0.00,91.0,WeatherDisplay:10.37,2013-04-11 15:13:00,
2013-04-11 11:18:00,46.9,44.7,29.97,NNE,15,1.1,6.9,92,0.00,OVC,,0.00,144.0,WeatherDisplay:10.37,2013-04-11 15:18:00,
2013-04-11 11:23:00,47.0,44.8,29.97,NNE,20,3.5,4.0,92,0.00,OVC,,0.00,98.0,WeatherDisplay:10.37,2013-04-11 15:23:00,
2013-04-11 11:28:00,47.1,44.9,29.97,NNE,15,6.2,10.4,92,0.00,OVC,,0.00,97.0,WeatherDisplay:10.37,2013-04-11 15:28:00,
2013-04-11 11:33:00,47.1,44.9,29.99,NNE,20,0.0,3.5,92,0.00,OVC,,0.00,72.0,WeatherDisplay:10.37,2013-04-11 15:33:00,
2013-04-11 11:38:00,47.1,44.9,29.99,NNE,15,5.8,8.1,92,0.00,OVC,,0.00,90.0,WeatherDisplay:10.37,2013-04-11 15:38:00,
2013-04-11 11:44:00,47.0,44.8,29.99,NNE,20,2.5,6.9,92,0.00,OVC,,0.00,93.0,WeatherDisplay:10.37,2013-04-11 15:44:00,
2013-04-11 11:49:00,47.1,44.9,29.99,NNE,20,2.8,8.1,92,0.00,OVC,,0.00,114.0,WeatherDisplay:10.37,2013-04-11 15:49:00,
2013-04-11 11:54:00,47.1,44.9,29.99,NNE,20,4.4,7.0,92,0.00,OVC,,0.00,77.0,WeatherDisplay:10.37,2013-04-11 15:54:00,
2013-04-11 11:59:00,47.3,45.1,29.98,NNE,20,4.4,5.8,92,0.00,OVC,,0.00,165.0,WeatherDisplay:10.37,2013-04-11 15:59:00,
2013-04-11 12:04:00,47.4,45.2,29.98,NNE,20,5.0,9.2,92,0.00,OVC,,0.00,190.0,WeatherDisplay:10.37,2013-04-11 16:04:00,
2013-04-11 12:09:00,47.5,45.3,29.98,NNE,20,0.0,0.0,92,0.00,OVC,,0.00,158.0,WeatherDisplay:10.37,2013-04-11 16:09:00,
2013-04-11 12:14:00,47.7,45.5,29.98,NNE,20,3.8,5.8,92,0.00,OVC,,0.00,195.0,WeatherDisplay:10.37,2013-04-11 16:14:00,
2013-04-11 12:19:00,47.7,45.2,29.98,NNE,20,3.0,4.6,91,0.00,OVC,,0.00,151.0,WeatherDisplay:10.37,2013-04-11 16:19:00,
2013-04-11 12:24:00,47.8,45.3,29.98,NNE,20,4.4,6.9,91,0.00,OVC,,0.00,165.0,WeatherDisplay:10.37,2013-04-11 16:24:00,
2013-04-11 12:29:00,47.7,45.2,29.98,NNE,20,4.5,10.4,91,0.00,OVC,,0.00,185.0,WeatherDisplay:10.37,2013-04-11 16:29:00,
2013-04-11 12:34:00,47.8,45.3,29.97,NNE,20,3.5,6.9,91,0.00,OVC,,0.00,218.0,WeatherDisplay:10.37,2013-04-11 16:34:00,
2013-04-11 12:39:00,48.0,45.5,29.97,NNE,20,3.3,9.2,91,0.00,OVC,,0.00,183.0,WeatherDisplay:10.37,2013-04-11 16:39:00,
2013-04-11 12:44:00,48.1,45.6,29.98,NNE,20,5.5,8.1,91,0.00,OVC,,0.00,113.0,WeatherDisplay:10.37,2013-04-11 16:44:00,
2013-04-11 12:49:00,47.9,45.4,29.98,NNE,20,3.5,4.6,91,0.00,OVC,,0.00,104.0,WeatherDisplay:10.37,2013-04-11 16:49:00,
2013-04-11 12:54:00,47.6,44.8,29.98,NNE,20,3.6,6.0,90,0.00,OVC,,0.00,81.0,WeatherDisplay:10.37,2013-04-11 16:54:00,
2013-04-11 12:59:00,47.3,44.5,29.99,NNE,20,3.0,5.8,90,0.00,OVC,,0.00,171.0,WeatherDisplay:10.37,2013-04-11 16:59:00,
2013-04-11 13:04:00,47.2,44.4,29.99,NNE,20,2.8,3.5,90,0.00,OVC,,0.00,236.0,WeatherDisplay:10.37,2013-04-11 17:04:00,
2013-04-11 13:09:00,47.2,44.4,29.99,NNE,20,2.7,6.9,90,0.00,OVC,,0.00,244.0,WeatherDisplay:10.37,2013-04-11 17:09:00,
2013-04-11 13:14:00,47.4,44.6,29.99,NNE,20,3.0,5.8,90,0.00,OVC,,0.00,246.0,WeatherDisplay:10.37,2013-04-11 17:14:00,
2013-04-11 13:19:00,47.5,44.4,29.99,NNE,20,7.5,10.4,89,0.00,OVC,,0.00,260.0,WeatherDisplay:10.37,2013-04-11 17:19:00,
2013-04-11 13:24:00,47.6,44.2,29.99,NNE,20,1.9,6.9,88,0.00,OVC,,0.00,343.0,WeatherDisplay:10.37,2013-04-11 17:24:00,
2013-04-11 13:29:00,48.0,44.6,29.99,NNE,20,2.3,8.1,88,0.00,SCT,,0.00,497.0,WeatherDisplay:10.37,2013-04-11 17:29:00,
2013-04-11 13:34:00,48.5,44.8,29.99,NNE,20,3.5,3.5,87,0.00,SCT,,0.00,1018.0,WeatherDisplay:10.37,2013-04-11 17:34:00,
2013-04-11 13:39:00,49.1,44.8,29.99,NNE,20,1.9,9.2,85,0.00,SCT,,0.00,677.0,WeatherDisplay:10.37,2013-04-11 17:39:00,
2013-04-11 13:44:00,49.8,45.2,29.99,NNE,20,0.0,4.6,84,0.00,BKN,,0.00,397.0,WeatherDisplay:10.37,2013-04-11 17:44:00,
2013-04-11 13:49:00,50.1,44.8,29.99,NNE,20,3.0,4.6,82,0.00,BKN,,0.00,439.0,WeatherDisplay:10.37,2013-04-11 17:49:00,
2013-04-11 13:54:00,50.3,44.4,29.99,NNE,20,2.5,3.5,80,0.00,BKN,,0.00,364.0,WeatherDisplay:10.37,2013-04-11 17:54:00,
2013-04-11 13:59:00,50.8,44.5,29.99,NNE,20,1.2,6.9,79,0.00,BKN,,0.00,295.0,WeatherDisplay:10.37,2013-04-11 17:59:00,
2013-04-11 14:04:00,51.0,44.4,29.99,NNE,20,1.1,4.6,78,0.00,OVC,,0.00,276.0,WeatherDisplay:10.37,2013-04-11 18:04:00,
2013-04-11 14:09:00,51.2,44.6,29.99,NNE,20,1.2,6.0,78,0.00,FEW,,0.00,684.0,WeatherDisplay:10.37,2013-04-11 18:09:00,
2013-04-11 14:14:00,51.5,44.2,29.98,NNE,20,1.8,3.5,76,0.00,CLR,,0.00,916.0,WeatherDisplay:10.37,2013-04-11 18:14:00,
2013-04-11 14:19:00,51.9,44.6,29.98,NNE,20,6.3,9.2,76,0.00,FEW,,0.00,719.0,WeatherDisplay:10.37,2013-04-11 18:19:00,
2013-04-11 14:24:00,52.3,45.0,29.98,NNE,20,0.0,0.0,76,0.00,CLR,,0.00,803.0,WeatherDisplay:10.37,2013-04-11 18:24:00,
2013-04-11 14:29:00,53.0,44.9,29.97,NNE,20,2.5,3.5,74,0.00,SCT,,0.00,302.0,WeatherDisplay:10.37,2013-04-11 18:29:00,
2013-04-11 14:34:00,53.4,44.6,29.97,NNE,20,3.8,4.6,72,0.00,SCT,,0.00,297.0,WeatherDisplay:10.37,2013-04-11 18:34:00,
2013-04-11 14:39:00,53.5,44.7,29.97,NNE,20,2.0,3.5,72,0.00,BKN,,0.00,350.0,WeatherDisplay:10.37,2013-04-11 18:39:00,
2013-04-11 14:44:00,53.7,44.5,29.97,NNE,20,0.0,0.0,71,0.00,SCT,,0.00,448.0,WeatherDisplay:10.37,2013-04-11 18:44:00,
2013-04-11 14:50:00,53.8,44.2,29.97,NNE,20,3.2,6.9,70,0.00,SCT,,0.00,487.0,WeatherDisplay:10.37,2013-04-11 18:50:00,
2013-04-11 14:55:00,53.9,44.0,29.97,NNE,20,4.5,8.1,69,0.00,FEW,,0.00,744.0,WeatherDisplay:10.37,2013-04-11 18:55:00,
2013-04-11 15:00:00,54.0,44.1,29.97,NNE,20,0.6,0.0,69,0.00,CLR,,0.00,838.0,WeatherDisplay:10.37,2013-04-11 19:00:00,
2013-04-11 15:05:00,54.2,44.2,29.97,NNE,20,2.8,9.2,69,0.00,CLR,,0.00,856.0,WeatherDisplay:10.37,2013-04-11 19:05:00,
2013-04-11 15:10:00,54.2,43.5,29.97,NNE,20,1.4,6.9,67,0.00,SCT,,0.00,492.0,WeatherDisplay:10.37,2013-04-11 19:10:00,
2013-04-11 15:15:00,54.3,43.6,29.98,NNE,20,0.0,1.2,67,0.00,SCT,,0.00,290.0,WeatherDisplay:10.37,2013-04-11 19:15:00,
2013-04-11 15:20:00,54.4,43.7,29.98,NNE,20,1.9,5.8,67,0.00,SCT,,0.00,462.0,WeatherDisplay:10.37,2013-04-11 19:20:00,
2013-04-11 15:25:00,54.4,43.7,29.98,NNE,20,1.5,5.8,67,0.00,BKN,,0.00,322.0,WeatherDisplay:10.37,2013-04-11 19:25:00,
2013-04-11 15:30:00,54.4,43.7,29.97,NNE,20,0.0,2.3,67,0.00,BKN,,0.00,274.0,WeatherDisplay:10.37,2013-04-11 19:30:00,
2013-04-11 15:35:00,54.5,43.8,29.97,NNE,20,0.0,0.0,67,0.00,BKN,,0.00,390.0,WeatherDisplay:10.37,2013-04-11 19:35:00,
2013-04-11 15:40:00,54.5,43.8,29.97,NNE,20,2.8,8.1,67,0.00,BKN,,0.00,218.0,WeatherDisplay:10.37,2013-04-11 19:40:00,
2013-04-11 15:45:00,54.4,43.7,29.97,NNE,20,0.6,4.6,67,0.00,SCT,,0.00,392.0,WeatherDisplay:10.37,2013-04-11 19:45:00,
2013-04-11 15:50:00,54.5,44.5,29.97,NNE,20,0.3,6.0,69,0.00,BKN,,0.00,320.0,WeatherDisplay:10.37,2013-04-11 19:50:00,
2013-04-11 15:55:00,54.6,44.6,29.97,NNE,20,0.0,0.0,69,0.00,BKN,,0.00,288.0,WeatherDisplay:10.37,2013-04-11 19:55:00,
2013-04-11 16:00:00,54.7,44.7,29.96,NNE,20,0.4,3.5,69,0.00,CLR,,0.00,666.0,WeatherDisplay:10.37,2013-04-11 20:00:00,
2013-04-11 16:05:00,55.0,45.0,29.96,NNE,20,0.1,1.2,69,0.00,OVC,,0.00,185.0,WeatherDisplay:10.37,2013-04-11 20:05:00,
2013-04-11 16:10:00,55.0,44.6,29.96,NNE,20,0.0,0.0,68,0.00,BKN,,0.00,209.0,WeatherDisplay:10.37,2013-04-11 20:10:00,
2013-04-11 16:15:00,54.9,44.2,29.97,NNE,19,1.0,6.0,67,0.00,OVC,,0.00,163.0,WeatherDisplay:10.37,2013-04-11 20:15:00,
2013-04-11 16:20:00,54.8,43.7,29.97,NNE,19,1.0,8.0,66,0.00,OVC,,0.00,120.0,WeatherDisplay:10.37,2013-04-11 20:20:00,
2013-04-11 16:25:00,54.7,43.6,29.97,NNE,20,3.0,6.0,66,0.00,OVC,,0.00,90.0,WeatherDisplay:10.37,2013-04-11 20:25:00,
2013-04-11 16:30:00,54.4,42.9,29.97,NNE,20,4.8,10.4,65,0.00,OVC,,0.00,98.0,WeatherDisplay:10.37,2013-04-11 20:30:00,
2013-04-11 16:35:00,53.8,39.4,29.97,NNE,20,5.9,10.4,58,0.00,OVC,,0.00,146.0,WeatherDisplay:10.37,2013-04-11 20:35:00,
2013-04-11 16:40:00,53.4,38.5,29.97,NNE,20,1.4,6.9,57,0.00,OVC,,0.00,165.0,WeatherDisplay:10.37,2013-04-11 20:40:00,
2013-04-11 16:45:00,53.2,37.4,29.98,NNE,20,3.3,8.1,55,0.00,BKN,,0.00,211.0,WeatherDisplay:10.37,2013-04-11 20:45:00,
2013-04-11 16:50:00,53.2,37.4,29.98,NNE,20,0.3,3.5,55,0.00,BKN,,0.00,176.0,WeatherDisplay:10.37,2013-04-11 20:50:00,
2013-04-11 16:55:00,53.1,37.3,29.98,NNE,15,2.5,6.9,55,0.00,BKN,,0.00,153.0,WeatherDisplay:10.37,2013-04-11 20:55:00,
2013-04-11 17:00:00,53.0,36.8,29.99,NNE,20,4.5,10.0,54,0.00,BKN,,0.00,195.0,WeatherDisplay:10.37,2013-04-11 21:00:00,
2013-04-11 17:05:00,52.9,36.2,29.99,NNE,20,3.0,9.2,53,0.00,OVC,,0.00,132.0,WeatherDisplay:10.37,2013-04-11 21:05:00,
2013-04-11 17:10:00,52.8,36.6,29.99,NNE,20,0.0,0.0,54,0.00,OVC,,0.00,107.0,WeatherDisplay:10.37,2013-04-11 21:10:00,
2013-04-11 17:15:00,52.6,36.5,29.99,NNE,18,2.0,9.0,54,0.00,BKN,,0.00,146.0,WeatherDisplay:10.37,2013-04-11 21:15:00,
2013-04-11 17:20:00,52.4,35.8,29.99,NNE,15,0.7,4.6,53,0.00,BKN,,0.00,139.0,WeatherDisplay:10.37,2013-04-11 21:20:00,
2013-04-11 17:25:00,52.3,35.7,29.99,NNE,19,2.0,7.0,53,0.00,BKN,,0.00,156.0,WeatherDisplay:10.37,2013-04-11 21:25:00,
2013-04-11 17:30:00,52.2,35.1,29.99,NNE,20,1.0,4.6,52,0.00,SCT,,0.00,211.0,WeatherDisplay:10.37,2013-04-11 21:30:00,
2013-04-11 17:35:00,52.2,34.6,29.99,NNE,20,6.1,10.4,51,0.00,SCT,,0.00,167.0,WeatherDisplay:10.37,2013-04-11 21:35:00,
2013-04-11 17:40:00,52.2,34.1,29.99,NNE,20,4.5,7.0,50,0.00,BKN,,0.00,135.0,WeatherDisplay:10.37,2013-04-11 21:40:00,
2013-04-11 17:45:00,52.1,34.0,30.00,NNE,20,6.6,10.4,50,0.00,BKN,,0.00,123.0,WeatherDisplay:10.37,2013-04-11 21:45:00,
2013-04-11 17:50:00,51.9,33.8,30.00,NNE,20,4.7,8.1,50,0.00,BKN,,0.00,91.0,WeatherDisplay:10.37,2013-04-11 21:50:00,
2013-04-11 17:55:00,51.8,33.7,30.00,NNE,20,5.1,10.4,50,0.00,OVC,,0.00,83.0,WeatherDisplay:10.37,2013-04-11 21:55:00,
2013-04-11 18:00:00,51.6,34.0,30.01,NNE,20,5.5,10.0,51,0.00,OVC,,0.00,58.0,WeatherDisplay:10.37,2013-04-11 22:00:00,
2013-04-11 18:05:00,51.2,33.2,30.01,NNE,20,6.8,11.5,50,0.00,OVC,,0.00,49.0,WeatherDisplay:10.37,2013-04-11 22:05:00,
2013-04-11 18:10:00,50.8,32.8,30.01,NNE,20,5.3,10.0,50,0.00,OVC,,0.00,49.0,WeatherDisplay:10.37,2013-04-11 22:10:00,
2013-04-11 18:15:00,50.5,32.5,30.02,NNE,20,5.7,9.2,50,0.00,OVC,,0.00,51.0,WeatherDisplay:10.37,2013-04-11 22:15:00,
2013-04-11 18:20:00,50.3,32.8,30.02,NNE,20,2.1,6.9,51,0.00,OVC,,0.00,53.0,WeatherDisplay:10.37,2013-04-11 22:20:00,
2013-04-11 18:25:00,50.1,32.2,30.02,NNE,20,4.6,9.2,50,0.00,OVC,,0.00,32.0,WeatherDisplay:10.37,2013-04-11 22:25:00,
2013-04-11 18:30:00,49.9,32.5,30.02,NNE,20,0.0,0.0,51,0.00,OVC,,0.00,35.0,WeatherDisplay:10.37,2013-04-11 22:30:00,
2013-04-11 18:35:00,49.7,32.3,30.02,NNE,20,0.0,6.0,51,0.00,OVC,,0.00,26.0,WeatherDisplay:10.37,2013-04-11 22:35:00,
2013-04-11 18:40:00,49.6,32.7,30.02,NNE,20,0.5,3.5,52,0.00,OVC,,0.00,18.0,WeatherDisplay:10.37,2013-04-11 22:40:00,
2013-04-11 18:45:00,49.5,32.1,30.03,NNE,20,3.3,9.2,51,0.00,OVC,,0.00,16.0,WeatherDisplay:10.37,2013-04-11 22:45:00,
2013-04-11 18:50:00,49.3,32.4,30.03,NNE,20,0.0,0.0,52,0.00,OVC,,0.00,25.0,WeatherDisplay:10.37,2013-04-11 22:50:00,
2013-04-11 18:55:00,49.1,31.2,30.03,NNE,20,3.9,8.1,50,0.00,OVC,,0.00,9.0,WeatherDisplay:10.37,2013-04-11 22:55:00,
2013-04-11 19:00:00,48.9,31.1,30.03,NNE,20,5.1,8.1,50,0.00,OVC,,0.00,7.0,WeatherDisplay:10.37,2013-04-11 23:00:00,
2013-04-11 19:05:00,48.7,31.4,30.03,NNE,20,6.6,9.2,51,0.00,OVC,,0.00,9.0,WeatherDisplay:10.37,2013-04-11 23:05:00,
2013-04-11 19:10:00,48.5,31.7,30.03,NNE,20,2.9,5.8,52,0.00,OVC,,0.00,7.0,WeatherDisplay:10.37,2013-04-11 23:10:00,
2013-04-11 19:15:00,48.3,31.0,30.03,NNE,20,1.7,5.8,51,0.00,OVC,,0.00,5.0,WeatherDisplay:10.37,2013-04-11 23:15:00,
2013-04-11 19:20:00,48.2,30.9,30.03,NNE,20,5.3,9.2,51,0.00,OVC,,0.00,0.0,WeatherDisplay:10.37,2013-04-11 23:20:00,
2013-04-11 19:25:00,48.0,31.2,30.03,NNE,20,3.1,8.1,52,0.00,OVC,,0.00,0.0,WeatherDisplay:10.37,2013-04-11 23:25:00,
2013-04-11 19:30:00,47.9,31.1,30.03,NNE,20,1.3,6.9,52,0.00,OVC,,0.00,0.0,WeatherDisplay:10.37,2013-04-11 23:30:00,
2013-04-11 19:35:00,47.8,31.5,30.03,NNE,20,1.2,4.0,53,0.00,OVC,,0.00,0.0,WeatherDisplay:10.37,2013-04-11 23:35:00,
2013-04-11 19:40:00,47.7,31.9,30.03,NNE,20,0.6,3.5,54,0.00,OVC,,0.00,0.0,WeatherDisplay:10.37,2013-04-11 23:40:00,
2013-04-11 19:45:00,47.6,31.8,30.04,NNE,20,2.8,9.2,54,0.00,OVC,,0.00,0.0,WeatherDisplay:10.37,2013-04-11 23:45:00,
2013-04-11 19:50:00,47.4,31.6,30.04,NNE,20,3.8,11.5,54,0.00,OVC,,0.00,0.0,WeatherDisplay:10.37,2013-04-11 23:50:00,
2013-04-11 19:55:00,47.4,31.6,30.04,NNE,20,1.1,5.8,54,0.00,CLR,,0.00,0.0,WeatherDisplay:10.37,2013-04-11 23:55:00,
2013-04-11 20:00:00,47.3,32.4,30.04,NNE,20,5.5,10.0,56,0.00,CLR,,0.00,0.0,WeatherDisplay:10.37,2013-04-12 00:00:00,
2013-04-11 20:05:00,47.1,31.3,30.04,NNE,20,4.9,6.9,54,0.00,CLR,,0.00,0.0,WeatherDisplay:10.37,2013-04-12 00:05:00,
2013-04-11 20:10:00,46.9,31.6,30.04,NNE,20,5.3,11.0,55,0.00,CLR,,0.00,0.0,WeatherDisplay:10.37,2013-04-12 00:10:00,
2013-04-11 20:15:00,46.7,31.4,30.04,NNE,20,4.2,11.5,55,0.00,CLR,,0.00,0.0,WeatherDisplay:10.37,2013-04-12 00:15:00,
2013-04-11 20:20:00,46.5,31.6,30.04,NNE,20,5.2,8.1,56,0.00,CLR,,0.00,0.0,WeatherDisplay:10.37,2013-04-12 00:20:00,
2013-04-11 20:25:00,46.4,32.0,30.04,NNE,20,1.2,5.0,57,0.00,CLR,,0.00,0.0,WeatherDisplay:10.37,2013-04-12 00:25:00,
2013-04-11 20:30:00,46.3,31.9,30.04,NNE,20,0.0,0.0,57,0.00,CLR,,0.00,0.0,WeatherDisplay:10.37,2013-04-12 00:30:00,
2013-04-11 20:35:00,46.2,31.4,30.04,NNE,20,3.3,6.9,56,0.00,CLR,,0.00,0.0,WeatherDisplay:10.37,2013-04-12 00:35:00,
2013-04-11 20:40:00,46.1,31.7,30.04,NNE,20,0.5,4.6,57,0.00,CLR,,0.00,0.0,WeatherDisplay:10.37,2013-04-12 00:40:00,
2013-04-11 20:45:00,46.0,31.6,30.04,NNE,20,1.7,2.3,57,0.00,CLR,,0.00,0.0,WeatherDisplay:10.37,2013-04-12 00:45:00,
2013-04-11 20:50:00,45.9,31.5,30.05,NNE,20,3.2,6.0,57,0.00,CLR,,0.00,0.0,WeatherDisplay:10.37,2013-04-12 00:50:00,
2013-04-11 20:55:00,45.9,31.9,30.05,NNE,20,2.8,8.0,58,0.00,CLR,,0.00,0.0,WeatherDisplay:10.37,2013-04-12 00:55:00,
2013-04-11 21:00:00,45.9,31.9,30.06,NNE,20,6.9,8.1,58,0.00,CLR,,0.00,0.0,WeatherDisplay:10.37,2013-04-12 01:00:00,
2013-04-11 21:05:00,45.8,31.9,30.06,NNE,20,4.5,8.1,58,0.00,CLR,,0.00,0.0,WeatherDisplay:10.37,2013-04-12 01:05:00,
2013-04-11 21:10:00,45.8,31.9,30.06,NNE,20,2.0,0.0,58,0.00,CLR,,0.00,0.0,WeatherDisplay:10.37,2013-04-12 01:10:00,
2013-04-11 21:15:00,45.8,31.9,30.06,NNE,20,2.0,0.0,58,0.00,CLR,,0.00,0.0,WeatherDisplay:10.37,2013-04-12 01:15:00,
2013-04-11 21:20:00,45.5,32.0,30.07,NNE,20,2.5,4.6,59,0.00,CLR,,0.00,0.0,WeatherDisplay:10.37,2013-04-12 01:20:00,
2013-04-11 21:25:00,45.5,32.0,30.07,NNE,20,2.0,5.8,59,0.00,CLR,,0.00,0.0,WeatherDisplay:10.37,2013-04-12 01:25:00,
2013-04-11 21:30:00,45.4,31.5,30.07,NNE,20,5.5,9.2,58,0.00,CLR,,0.00,0.0,WeatherDisplay:10.37,2013-04-12 01:30:00,
2013-04-11 21:35:00,45.3,31.8,30.07,NNE,20,4.2,5.8,59,0.00,CLR,,0.00,0.0,WeatherDisplay:10.37,2013-04-12 01:35:00,
2013-04-11 21:40:00,45.1,31.6,30.07,NNE,20,4.5,8.1,59,0.00,CLR,,0.00,0.0,WeatherDisplay:10.37,2013-04-12 01:40:00,
2013-04-11 21:45:00,45.0,31.5,30.08,NNE,20,5.5,9.2,59,0.00,CLR,,0.00,0.0,WeatherDisplay:10.37,2013-04-12 01:45:00,
2013-04-11 21:50:00,44.9,31.8,30.08,NNE,15,0.0,3.5,60,0.00,CLR,,0.00,0.0,WeatherDisplay:10.37,2013-04-12 01:50:00,
2013-04-11 21:55:00,44.8,31.3,30.08,NNE,20,3.0,4.6,59,0.00,CLR,,0.00,0.0,WeatherDisplay:10.37,2013-04-12 01:55:00,
2013-04-11 22:00:00,44.6,30.7,30.08,NNE,20,1.9,5.8,58,0.00,CLR,,0.00,0.0,WeatherDisplay:10.37,2013-04-12 02:00:00,
2013-04-11 22:05:00,44.4,30.1,30.08,NNE,20,4.1,6.9,57,0.00,CLR,,0.00,0.0,WeatherDisplay:10.37,2013-04-12 02:05:00,
2013-04-11 22:10:00,44.3,30.0,30.08,NNE,20,1.4,3.5,57,0.00,CLR,,0.00,0.0,WeatherDisplay:10.37,2013-04-12 02:10:00,
2013-04-11 22:15:00,44.1,29.8,30.09,NNE,20,3.6,8.0,57,0.00,CLR,,0.00,0.0,WeatherDisplay:10.37,2013-04-12 02:15:00,
2013-04-11 22:20:00,44.0,29.7,30.09,NNE,20,0.4,5.8,57,0.00,CLR,,0.00,0.0,WeatherDisplay:10.37,2013-04-12 02:20:00,
2013-04-11 22:25:00,44.0,30.2,30.09,NNE,20,3.9,5.8,58,0.00,CLR,,0.00,0.0,WeatherDisplay:10.37,2013-04-12 02:25:00,
2013-04-11 22:30:00,43.8,30.4,30.10,NNE,20,0.4,4.0,59,0.00,CLR,,0.00,0.0,WeatherDisplay:10.37,2013-04-12 02:30:00,
2013-04-11 22:35:00,43.7,32.3,30.10,NNE,20,3.1,4.6,64,0.01,RA,,0.01,0.0,WeatherDisplay:10.37,2013-04-12 02:35:00,
2013-04-11 22:40:00,43.4,32.8,30.10,NNE,20,4.1,5.8,66,0.01,RA,,0.01,0.0,WeatherDisplay:10.37,2013-04-12 02:40:00,
2013-04-11 22:45:00,43.2,33.3,30.10,NNE,15,1.7,6.9,68,0.01,CLR,,0.01,0.0,WeatherDisplay:10.37,2013-04-12 02:45:00,
2013-04-11 22:50:00,42.9,33.8,30.10,NNE,20,1.5,4.6,70,0.01,CLR,,0.01,0.0,WeatherDisplay:10.37,2013-04-12 02:50:00,
2013-04-11 22:55:00,42.5,33.8,30.10,NNE,15,2.0,5.8,71,0.01,CLR,,0.01,0.0,WeatherDisplay:10.37,2013-04-12 02:55:00,
2013-04-11 23:00:00,42.2,34.2,30.09,NNE,20,1.9,3.5,73,0.01,CLR,,0.01,0.0,WeatherDisplay:10.37,2013-04-12 03:00:00,
2013-04-11 23:05:00,41.8,34.1,30.09,NNE,20,0.0,0.0,74,0.01,CLR,,0.01,0.0,WeatherDisplay:10.37,2013-04-12 03:05:00,
2013-04-11 23:10:00,41.5,34.2,30.09,NNE,20,1.5,3.5,75,0.01,CLR,,0.01,0.0,WeatherDisplay:10.37,2013-04-12 03:10:00,
2013-04-11 23:15:00,41.2,34.5,30.09,NNE,20,0.0,0.0,77,0.01,CLR,,0.01,0.0,WeatherDisplay:10.37,2013-04-12 03:15:00,
2013-04-11 23:20:00,40.9,34.6,30.09,NNE,20,0.0,1.0,78,0.01,CLR,,0.01,0.0,WeatherDisplay:10.37,2013-04-12 03:20:00,
2013-04-11 23:25:00,40.6,34.3,30.09,NNE,20,0.0,0.0,78,0.01,CLR,,0.01,0.0,WeatherDisplay:10.37,2013-04-12 03:25:00,
2013-04-11 23:30:00,40.4,34.4,30.09,NNE,20,0.0,0.0,79,0.01,CLR,,0.01,0.0,WeatherDisplay:10.37,2013-04-12 03:30:00,
2013-04-11 23:35:00,40.3,34.3,30.09,NNE,20,0.1,3.0,79,0.00,CLR,,0.01,0.0,WeatherDisplay:10.37,2013-04-12 03:35:00,
2013-04-11 23:40:00,40.3,34.6,30.09,NNE,20,0.0,0.0,80,0.00,CLR,,0.01,0.0,WeatherDisplay:10.37,2013-04-12 03:40:00,
2013-04-11 23:45:00,40.2,34.5,30.10,NNE,15,2.9,3.5,80,0.00,CLR,,0.01,0.0,WeatherDisplay:10.37,2013-04-12 03:45:00,
2013-04-11 23:50:00,40.2,34.8,30.10,NNE,20,1.1,2.3,81,0.00,CLR,,0.01,0.0,WeatherDisplay:10.37,2013-04-12 03:50:00,
2013-04-11 23:55:00,40.2,34.8,30.10,NNE,20,0.0,1.2,81,0.00,CLR,,0.01,0.0,WeatherDisplay:10.37,2013-04-12 03:55:00,